• In Hungary
  • List of Countries
  • For 7 days
  • Water Temperature
  • Satellite Maps
  • Weather Map
  • News
  • Weather Widgets
  • user-avatar
    Login

    Hourly Weather Padang

    Today, 21 August, Monday

    Time Temperature Precipitation Wind Pressure Humidity
    00:00 +26°C° 0.5 mm 0 mps 757 mmHg 97%
    01:00 +27°C° 0 mm 1 mps 757 mmHg 97%
    02:00 +27°C° 0.8 mm 1 mps 757 mmHg 97%
    03:00 +27°C° 0.8 mm 1 mps 756 mmHg 96%
    04:00 +27°C° 0.8 mm 1 mps 756 mmHg 96%
    05:00 +27°C° 0.9 mm 1 mps 756 mmHg 94%
    06:00 +27°C° 0.9 mm 1 mps 757 mmHg 93%
    07:00 +27°C° 0.9 mm 1 mps 757 mmHg 91%
    08:00 +29°C° 0.4 mm 1 mps 757 mmHg 83%
    09:00 +31°C° 0.4 mm 1 mps 757 mmHg 75%
    10:00 +33°C° 0.4 mm 1 mps 758 mmHg 66%
    11:00 +33°C° 0.7 mm 1 mps 757 mmHg 71%
    12:00 +34°C° 0.7 mm 2 mps 757 mmHg 76%
    13:00 +32°C° 0.7 mm 2 mps 756 mmHg 81%
    14:00 +32°C° 0.9 mm 2 mps 756 mmHg 83%
    15:00 +32°C° 0.9 mm 2 mps 755 mmHg 85%
    16:00 +31°C° 0.9 mm 1 mps 755 mmHg 87%
    17:00 +30°C° 1.1 mm 1 mps 755 mmHg 90%
    18:00 +29°C° 1.1 mm 1 mps 755 mmHg 92%
    19:00 +28°C° 1.1 mm 1 mps 756 mmHg 95%
    20:00 +28°C° 0.7 mm 1 mps 756 mmHg 95%
    21:00 +27°C° 0.7 mm 1 mps 757 mmHg 94%
    22:00 +27°C° 0.7 mm 1 mps 757 mmHg 94%
    23:00 +27°C° 0.5 mm 1 mps 757 mmHg 94%

    Tomorrow, 22 August, Tuesday

    Time Temperature Precipitation Wind Pressure Humidity
    00:00 +27°C° 0.5 mm 1 mps 757 mmHg 94%
    01:00 +27°C° 0.5 mm 2 mps 757 mmHg 93%
    02:00 +27°C° 0.6 mm 2 mps 757 mmHg 93%
    03:00 +27°C° 0.6 mm 2 mps 757 mmHg 93%
    04:00 +27°C° 0.6 mm 2 mps 756 mmHg 93%
    05:00 +27°C° 1.8 mm 2 mps 757 mmHg 93%
    06:00 +27°C° 1.8 mm 2 mps 757 mmHg 94%
    07:00 +27°C° 1.8 mm 2 mps 758 mmHg 94%
    08:00 +27°C° 1 mm 2 mps 758 mmHg 92%
    09:00 +28°C° 1 mm 2 mps 758 mmHg 89%
    10:00 +29°C° 1 mm 2 mps 759 mmHg 87%
    11:00 +29°C° 0.2 mm 2 mps 758 mmHg 86%
    12:00 +29°C° 0.2 mm 1 mps 757 mmHg 85%
    13:00 +30°C° 0.2 mm 1 mps 757 mmHg 84%
    14:00 +30°C° 0.1 mm 1 mps 756 mmHg 84%
    15:00 +29°C° 0.1 mm 1 mps 756 mmHg 83%
    16:00 +29°C° 0.1 mm 1 mps 755 mmHg 83%
    17:00 +29°C° 0 mm 1 mps 755 mmHg 83%
    18:00 +28°C° 0 mm 1 mps 756 mmHg 84%
    19:00 +28°C° 0 mm 1 mps 756 mmHg 84%
    20:00 +28°C° 0 mm 1 mps 757 mmHg 84%
    21:00 +27°C° 0 mm 1 mps 757 mmHg 84%
    22:00 +27°C° 0 mm 1 mps 758 mmHg 84%
    23:00 +27°C° 0 mm 1 mps 758 mmHg 83%

    Day after tomorrow, 23 August, Wednesday

    Time Temperature Precipitation Wind Pressure Humidity
    00:00 +27°C° 0 mm 1 mps 757 mmHg 83%
    01:00 +26°C° 0 mm 2 mps 757 mmHg 83%
    02:00 +26°C° 0 mm 2 mps 757 mmHg 83%
    03:00 +26°C° 0 mm 2 mps 756 mmHg 83%
    04:00 +26°C° 0 mm 1 mps 756 mmHg 82%
    05:00 +26°C° 0 mm 1 mps 756 mmHg 82%
    06:00 +26°C° 0 mm 2 mps 757 mmHg 82%
    07:00 +26°C° 0 mm 2 mps 757 mmHg 82%
    08:00 +29°C° 0 mm 2 mps 758 mmHg 74%
    09:00 +32°C° 0 mm 2 mps 758 mmHg 66%
    10:00 +35°C° 0 mm 2 mps 758 mmHg 57%
    11:00 +36°C° 0.1 mm 2 mps 757 mmHg 58%
    12:00 +36°C° 0.1 mm 2 mps 757 mmHg 59%
    13:00 +37°C° 0.1 mm 3 mps 756 mmHg 60%
    14:00 +35°C° 0.7 mm 3 mps 755 mmHg 66%
    15:00 +34°C° 0.7 mm 2 mps 755 mmHg 73%
    16:00 +32°C° 0.7 mm 2 mps 754 mmHg 80%
    17:00 +31°C° 0.7 mm 2 mps 755 mmHg 84%
    18:00 +30°C° 0.7 mm 2 mps 755 mmHg 88%
    19:00 +28°C° 0.7 mm 2 mps 756 mmHg 92%
    20:00 +28°C° 0.8 mm 2 mps 757 mmHg 93%
    21:00 +28°C° 0.8 mm 2 mps 757 mmHg 93%
    22:00 +27°C° 0.8 mm 2 mps 758 mmHg 94%
    23:00 +27°C° 0.5 mm 2 mps 757 mmHg 94%

    24 August, Thursday

    Time Temperature Precipitation Wind Pressure Humidity
    00:00 +27°C° 0.5 mm 2 mps 757 mmHg 93%
    01:00 +27°C° 0.5 mm 2 mps 757 mmHg 93%
    02:00 +27°C° 0.6 mm 2 mps 757 mmHg 93%
    03:00 +26°C° 0.6 mm 2 mps 757 mmHg 93%
    04:00 +26°C° 0.6 mm 2 mps 756 mmHg 93%
    05:00 +27°C° 0.5 mm 2 mps 757 mmHg 92%
    06:00 +27°C° 0.5 mm 2 mps 757 mmHg 92%
    07:00 +27°C° 0.5 mm 2 mps 758 mmHg 91%
    08:00 +29°C° 0 mm 2 mps 758 mmHg 82%
    09:00 +32°C° 0 mm 1 mps 758 mmHg 73%
    10:00 +34°C° 0 mm 1 mps 758 mmHg 65%
    11:00 +35°C° 0.3 mm 2 mps 757 mmHg 68%
    12:00 +34°C° 0.3 mm 2 mps 756 mmHg 72%
    13:00 +34°C° 0.3 mm 2 mps 756 mmHg 76%
    14:00 +34°C° 0.9 mm 2 mps 755 mmHg 79%
    15:00 +32°C° 0.9 mm 2 mps 755 mmHg 81%
    16:00 +32°C° 0.9 mm 2 mps 754 mmHg 84%
    17:00 +31°C° 1.2 mm 2 mps 755 mmHg 87%
    18:00 +29°C° 1.2 mm 1 mps 755 mmHg 90%
    19:00 +28°C° 1.2 mm 1 mps 756 mmHg 93%
    20:00 +28°C° 1 mm 1 mps 756 mmHg 94%
    21:00 +28°C° 1 mm 2 mps 757 mmHg 94%
    22:00 +27°C° 1 mm 2 mps 757 mmHg 95%
    23:00 +27°C° 1 mm 2 mps 757 mmHg 94%

    25 August, Friday

    Time Temperature Precipitation Wind Pressure Humidity
    00:00 +27°C° 1 mm 2 mps 756 mmHg 94%
    01:00 +27°C° 1 mm 2 mps 756 mmHg 94%
    02:00 +26°C° 0.7 mm 2 mps 756 mmHg 94%
    03:00 +26°C° 0.7 mm 2 mps 756 mmHg 94%
    04:00 +26°C° 0.7 mm 2 mps 756 mmHg 93%
    05:00 +26°C° 0.2 mm 2 mps 756 mmHg 93%
    06:00 +27°C° 0.2 mm 2 mps 757 mmHg 92%
    07:00 +27°C° 0.2 mm 1 mps 757 mmHg 91%
    08:00 +29°C° 0 mm 1 mps 757 mmHg 83%
    09:00 +31°C° 0 mm 1 mps 757 mmHg 74%
    10:00 +34°C° 0 mm 1 mps 757 mmHg 65%
    11:00 +34°C° 0.4 mm 1 mps 757 mmHg 67%
    12:00 +35°C° 0.4 mm 2 mps 756 mmHg 68%
    13:00 +35°C° 0.4 mm 2 mps 755 mmHg 70%
    14:00 +35°C° 0.7 mm 2 mps 755 mmHg 73%
    15:00 +34°C° 0.7 mm 2 mps 754 mmHg 77%
    16:00 +32°C° 0.7 mm 2 mps 754 mmHg 80%
    17:00 +31°C° 1 mm 1 mps 754 mmHg 85%
    18:00 +29°C° 1 mm 1 mps 754 mmHg 89%
    19:00 +28°C° 1 mm 1 mps 755 mmHg 93%
    20:00 +28°C° 0.8 mm 1 mps 755 mmHg 94%
    21:00 +27°C° 0.8 mm 1 mps 756 mmHg 94%
    22:00 +27°C° 0.8 mm 1 mps 756 mmHg 94%
    23:00 +27°C° 0.6 mm 1 mps 756 mmHg 95%

    26 August, Saturday

    Time Temperature Precipitation Wind Pressure Humidity
    00:00 +27°C° 0.6 mm 1 mps 755 mmHg 95%
    01:00 +27°C° 0.6 mm 1 mps 755 mmHg 95%
    02:00 +27°C° 0.9 mm 1 mps 755 mmHg 95%
    03:00 +27°C° 0.9 mm 1 mps 755 mmHg 95%
    04:00 +26°C° 0.9 mm 1 mps 755 mmHg 95%
    05:00 +27°C° 0.7 mm 1 mps 755 mmHg 95%
    06:00 +27°C° 0.7 mm 1 mps 756 mmHg 95%
    07:00 +27°C° 0.7 mm 1 mps 756 mmHg 94%
    08:00 +29°C° 0.3 mm 1 mps 756 mmHg 87%
    09:00 +31°C° 0.3 mm 1 mps 756 mmHg 79%
    10:00 +33°C° 0.3 mm 1 mps 756 mmHg 72%
    11:00 +33°C° 0.7 mm 1 mps 756 mmHg 74%
    12:00 +33°C° 0.7 mm 1 mps 755 mmHg 76%
    13:00 +33°C° 0.7 mm 1 mps 754 mmHg 78%
    14:00 +32°C° 1.3 mm 1 mps 754 mmHg 83%
    15:00 +31°C° 1.3 mm 1 mps 754 mmHg 87%
    16:00 +30°C° 1.3 mm 1 mps 753 mmHg 91%
    17:00 +30°C° 1.6 mm 1 mps 754 mmHg 93%
    18:00 +29°C° 1.6 mm 1 mps 754 mmHg 94%
    19:00 +28°C° 1.6 mm 1 mps 755 mmHg 95%
    20:00 +28°C° 1.6 mm 1 mps 755 mmHg 95%
    21:00 +28°C° 1.6 mm 1 mps 756 mmHg 95%
    22:00 +28°C° 1.6 mm 1 mps 756 mmHg 95%
    23:00 +27°C° 1.7 mm 1 mps 756 mmHg 95%
    Show more